Date String (YYYY-MM-DD hh:mm:ss) UTC,Instrument flags,Ambient pressure (hPa),Sample flow (lpm),Bypass flow (lpm),Sample temperature (°C),Ambient temperature (°C),ASC tube jacket temperature (°C),LED temperature (°C),Box temperature (°C),Sample RH (%),Span deviation,Mass concentration (μg/m³),Mass concentration (μg/m³),Mass concentration (μg/m³)
DateTimeUTC,F1_M11,P_M11,Q1_M11,Q2_M11,T1_M11,T2_M11,T3_M11,T4_M11,T5_M11,U1_M11,ZSPAN_M11,X2_M11,X0_M11,X1_M11
2021-09-01 10:00:00,,0821.8,4.99,0.00,29.7,28.7,00.0,38.8,31.5,15.9,0001.9,0026.78,0039.43,0025.01
2021-09-01 10:01:00,,0822.2,5.01,0.00,29.8,28.8,00.0,38.8,31.6,15.9,0001.9,0027.05,0040.05,0025.20
2021-09-01 10:02:00,,0821.8,4.99,0.00,29.8,28.8,00.0,38.8,31.6,15.8,0001.9,0027.33,0040.52,0025.41
2021-09-01 10:03:00,,0822.0,5.00,0.00,29.8,28.9,00.0,38.8,31.6,15.8,0001.7,0027.65,0042.17,0025.64
2021-09-01 10:04:00,,0821.8,5.00,0.00,29.8,28.9,00.0,38.8,31.7,15.8,0001.6,0028.01,0044.13,0025.88
2021-09-01 10:05:00,,0822.1,5.02,0.00,29.9,28.9,00.0,38.8,31.7,15.8,0001.5,0028.31,0045.32,0026.17
2021-09-01 10:06:00,,0822.3,4.99,0.00,29.9,29.0,00.0,38.9,31.7,15.9,0001.3,0028.52,0046.55,0026.39
2021-09-01 10:07:00,,0822.1,5.00,0.00,29.9,29.0,00.0,38.9,31.7,15.9,0001.1,0028.70,0047.46,0026.55
2021-09-01 10:08:00,,0821.9,5.00,0.00,30.0,29.1,00.0,38.9,31.8,15.9,0001.1,0028.86,0048.08,0026.70
2021-09-01 10:09:00,,0821.9,5.00,0.00,30.0,29.1,00.0,38.9,31.8,15.9,0001.2,0028.98,0047.69,0026.79
2021-09-01 10:10:00,,0822.0,5.00,0.00,30.0,29.1,00.0,39.0,31.8,16.0,0001.2,0029.07,0046.98,0026.89
2021-09-01 10:11:00,,0822.0,5.00,0.00,29.9,27.5,00.0,39.0,31.4,15.9,0001.1,0029.17,0047.03,0026.98
2021-09-01 10:12:00,,0822.0,5.00,0.00,29.8,26.3,00.0,38.9,31.1,16.1,0000.9,0029.21,0047.81,0027.05
2021-09-01 10:13:00,,0822.0,5.00,0.00,29.7,26.4,00.0,38.9,31.1,16.2,0000.8,0029.19,0047.84,0027.09
2021-09-01 10:14:00,,0822.0,5.00,0.00,29.6,26.8,00.0,38.9,31.1,16.3,0000.9,0029.16,0046.16,0027.12
2021-09-01 10:15:00,,0822.0,5.00,0.00,29.6,27.2,00.0,38.8,31.2,16.4,0001.1,0029.27,0045.90,0027.25
2021-09-01 10:16:00,,0822.1,5.01,0.00,29.6,27.5,00.0,38.8,31.2,16.5,0001.1,0029.44,0046.01,0027.37
2021-09-01 10:17:00,,0822.0,4.99,0.00,29.6,27.8,00.0,38.8,31.3,16.5,0001.5,0029.59,0045.86,0027.46
2021-09-01 10:18:00,,0822.0,5.00,0.00,29.6,28.0,00.0,38.8,31.4,16.5,0001.6,0029.67,0046.20,0027.50
2021-09-01 10:19:00,,0822.0,4.99,0.00,29.6,28.2,00.0,38.8,31.4,16.6,0001.5,0029.78,0046.13,0027.63
2021-09-01 10:20:00,,0822.0,5.01,0.00,29.6,28.3,00.0,38.8,31.4,16.8,0001.4,0029.93,0047.16,0027.78
2021-09-01 10:21:00,,0822.0,4.99,0.00,29.7,28.4,00.0,38.8,31.5,16.7,0001.3,0030.08,0047.66,0027.87
2021-09-01 10:22:00,,0821.9,4.99,0.00,29.7,28.5,00.0,38.8,31.5,16.7,0001.2,0030.24,0048.00,0027.95
2021-09-01 10:23:00,,0821.8,5.02,0.00,29.7,28.6,00.0,38.8,31.5,16.7,0001.0,0030.49,0047.83,0028.09
2021-09-01 10:24:00,,0822.2,4.99,0.00,29.7,28.6,00.0,38.8,31.5,16.8,0001.1,0030.72,0047.87,0028.29
2021-09-01 10:25:00,,0822.2,5.01,0.00,29.7,28.7,00.0,38.8,31.5,16.7,0001.0,0030.99,0048.32,0028.55
2021-09-01 10:26:00,,0822.2,4.98,0.00,29.8,28.7,00.0,38.8,31.6,16.7,0000.7,0031.24,0048.80,0028.78
2021-09-01 10:27:00,,0822.0,5.00,0.00,29.8,28.8,00.0,38.8,31.6,16.9,0000.6,0031.50,0049.02,0029.00
2021-09-01 10:28:00,,0821.9,5.01,0.00,29.8,28.8,00.0,38.8,31.6,16.7,0000.4,0031.63,0049.04,0029.14
2021-09-01 10:29:00,,0821.9,5.00,0.00,29.8,28.9,00.0,38.9,31.6,16.7,0000.5,0031.67,0048.69,0029.22
2021-09-01 10:30:00,,0822.2,4.99,0.00,29.8,28.9,00.0,38.9,31.7,16.6,0000.5,0031.71,0049.27,0029.26
2021-09-01 10:31:00,,0822.1,5.01,0.00,29.9,28.9,00.0,38.9,31.7,16.2,0000.5,0031.52,0048.69,0029.11
2021-09-01 10:32:00,,0822.1,4.99,0.00,29.9,29.0,00.0,38.9,31.7,15.7,0000.7,0031.03,0047.80,0028.75
2021-09-01 10:33:00,,0822.0,4.99,0.00,29.9,29.0,00.0,38.9,31.7,15.6,0000.9,0030.52,0046.75,0028.38
2021-09-01 10:34:00,,0822.1,5.00,0.00,29.9,29.0,00.0,38.9,31.7,15.6,0001.1,0030.03,0045.19,0028.04
2021-09-01 10:35:00,,0821.8,5.00,0.00,30.0,29.1,00.0,38.9,31.7,15.6,0001.0,0029.67,0044.87,0027.68
2021-09-01 10:36:00,,0821.9,5.00,0.00,30.0,29.1,00.0,39.0,31.8,15.7,0001.1,0029.29,0044.41,0027.32
2021-09-01 10:37:00,,0821.8,5.00,0.00,30.0,29.1,00.0,39.0,31.8,15.7,0001.3,0028.93,0043.48,0027.01
2021-09-01 10:38:00,,0821.8,5.00,0.00,30.0,28.9,00.0,39.0,31.8,15.6,0001.4,0028.47,0043.17,0026.58
2021-09-01 10:39:00,,0821.8,4.99,0.00,29.9,27.0,00.0,39.0,31.4,15.6,0001.4,0028.10,0043.68,0026.24
2021-09-01 10:40:00,,0821.8,5.00,0.00,29.8,26.3,00.0,39.0,31.1,15.8,0001.3,0027.78,0042.75,0025.96
2021-09-01 10:41:00,,0821.8,5.01,0.00,29.7,26.5,00.0,39.0,31.2,16.0,0001.4,0027.57,0042.68,0025.74
2021-09-01 10:42:00,,0821.8,5.00,0.00,29.7,26.9,00.0,38.9,31.2,16.0,0001.3,0027.56,0043.00,0025.72
2021-09-01 10:43:00,,0821.8,5.00,0.00,29.6,27.3,00.0,38.9,31.2,16.2,0001.1,0027.73,0043.95,0025.85
2021-09-01 10:44:00,,0821.8,4.98,0.00,29.6,27.6,00.0,38.8,31.2,16.1,0001.1,0028.04,0044.45,0026.09
2021-09-01 10:45:00,,0821.8,5.02,0.00,29.6,27.9,00.0,38.8,31.3,16.2,0001.1,0028.24,0044.90,0026.26
2021-09-01 10:46:00,,0821.8,4.99,0.00,29.7,28.0,00.0,38.8,31.4,16.2,0001.1,0028.46,0044.87,0026.47
2021-09-01 10:47:00,,0821.8,5.00,0.00,29.7,28.2,00.0,38.8,31.4,15.9,0001.0,0028.52,0044.64,0026.52
2021-09-01 10:48:00,,0821.8,5.01,0.00,29.7,28.3,00.0,38.8,31.4,15.7,0001.0,0028.38,0044.55,0026.37
2021-09-01 10:49:00,,0821.8,4.99,0.00,29.7,28.4,00.0,38.8,31.4,16.0,0000.9,0028.34,0043.88,0026.36
2021-09-01 10:50:00,,0821.8,4.98,0.00,29.7,28.5,00.0,38.8,31.4,15.8,0000.9,0028.36,0042.57,0026.38
2021-09-01 10:51:00,,0821.8,5.01,0.00,29.8,28.6,00.0,38.8,31.5,15.7,0001.0,0028.35,0041.96,0026.39
2021-09-01 10:52:00,,0821.8,5.00,0.00,29.8,28.7,00.0,38.8,31.5,15.5,0001.1,0028.10,0040.44,0026.24
2021-09-01 10:53:00,,0821.8,5.00,0.00,29.8,28.7,00.0,38.8,31.5,15.6,0001.1,0028.01,0039.66,0026.09
2021-09-01 10:54:00,,0821.9,4.99,0.00,29.8,28.8,00.0,38.9,31.6,15.7,0001.2,0027.91,0038.78,0026.02
2021-09-01 10:55:00,,0821.8,5.00,0.00,29.8,28.8,00.0,38.9,31.6,15.5,0001.2,0027.70,0038.13,0025.87
2021-09-01 10:56:00,,0821.8,5.00,0.00,29.9,28.9,00.0,38.9,31.6,15.3,0001.2,0027.45,0037.73,0025.63
2021-09-01 10:57:00,,0821.8,5.01,0.00,29.9,28.9,00.0,38.9,31.7,15.2,0001.3,0027.08,0037.56,0025.28
2021-09-01 10:58:00,,0821.8,5.00,0.00,29.9,28.9,00.0,38.9,31.7,15.1,0001.5,0026.69,0036.97,0024.97
2021-09-01 10:59:00,,0821.8,5.00,0.00,29.9,29.0,00.0,38.9,31.7,15.2,0001.6,0026.53,0036.10,0024.84
